カタログに戻る

STARLINK-4322

運用中通信SSO
NORAD 53078·PAYLOAD·🇺🇸 United States

打ち上げ Jul 11, 2022 から Vandenberg Space Force Base

Loading…

次のパス (今後24時間)

TLE

最新Source: CelesTrak SupGP

元期: Sep 15, 2026, 02:13 UTC

1 53078C 22077AM  26258.09284722 -.00078238  00000+0 -24283-2 0  2586
2 53078  97.2860  72.9440 0001655  93.4078 244.7538 15.33483866    12

AllMySatでSTARLINK-4322をリアルタイム追跡

Download on the App Store